Location: *
(49.0044°N, 9.5056°E)
Time: 16:10:10
(UTC+00:00)

ARGOS - Pass Details

Date: 22 September 2019
Orbit: 821 x 834 km, 98.5° (Epoch: 19 October)

Event Time Altitude Azimuth Distance (km) Brightness Sun altitude
Exits shadow 19:39:17 22° 184° (S) 1,726 4.6 -22.6°
Maximum altitude 19:42:44 62° 258° (WSW) 931 3.5 -23.1°
Drops below altitude 10° 19:48:06 10° 340° (NNW) 2,444 6.3 -23.9°
Sets 19:50:30 0° 344° (NNW) 3,384 7.0 -24.2°
